Humidity-temperature Sensor

Selected Measurement Type: Relative Humidity

 
Relative Humidity [%]     6 entries per hour
Showing data from 3/14/2016 (00:00:00 Z) to 3/11/2016 (00:01:00 Z)
Previous Next [ Day | 3-Days | 7-Days ]
First Last
Prev [ Day | 3-Days | 7-Days ] Next
First Last

Start Time:     :
End Time:     :     
Time (in GMT) :00 :50 :40 :30 :20 :10
Previous Next [ Day | 3-Days | 7-Days ]
First Last
Prev [ Day | 3-Days | 7-Days ] Next
First Last


123 => good data
MM => data is determined as missing
-- => data not received/configured
Back to Top Back to Top
3/14/2016 00:00 to 23:10 82.24 81.92 82.12 81.64 81.82 81.23
3/13/2016 23:00 to 22:10 82.99 82.75 81.50 81.78 81.56 80.57
3/13/2016 22:00 to 21:10 81.23 82.85 83.17 83.37 81.45 81.80
3/13/2016 21:00 to 20:10 81.66 80.93 81.31 82.55 82.02 83.94
3/13/2016 20:00 to 19:10 84.45 82.57 81.80 82.44 81.90 82.75
3/13/2016 19:00 to 18:10 82.44 82.30 82.30 82.34 82.22 82.06
3/13/2016 18:00 to 17:10 81.64 82.26 82.26 82.02 81.33 82.28
3/13/2016 17:00 to 16:10 83.21 85.33 83.82 84.10 82.87 83.37
3/13/2016 16:00 to 15:10 82.79 82.34 83.21 81.76 83.11 83.19
3/13/2016 15:00 to 14:10 85.01 84.47 86.06 87.32 86.06 85.40
3/13/2016 14:00 to 13:10 85.03 86.12 86.39 88.31 88.20 87.82
3/13/2016 13:00 to 12:10 86.87 86.30 86.04 85.72 84.89 85.21
3/13/2016 12:00 to 11:10 85.33 85.33 85.46 85.58 85.72 85.25
3/13/2016 11:00 to 10:10 84.61 84.49 84.47 85.25 85.31 85.09
3/13/2016 10:00 to 9:10 85.60 85.52 85.98 85.98 85.48 85.13
3/13/2016 09:00 to 8:10 84.85 85.62 85.64 87.56 91.42 83.72
3/13/2016 08:00 to 7:10 82.97 83.58 83.94 83.86 83.19 82.38
3/13/2016 07:00 to 6:10 82.71 82.20 81.37 81.82 83.07 84.18
3/13/2016 06:00 to 5:10 84.47 84.18 83.78 82.85 83.46 85.15
3/13/2016 05:00 to 4:10 84.67 84.63 84.08 84.36 85.48 84.22
3/13/2016 04:00 to 3:10 84.12 84.65 85.11 85.46 85.27 87.23
3/13/2016 03:00 to 2:10 87.64 87.86 87.70 87.68 88.00 83.96
3/13/2016 02:00 to 1:10 83.50 84.36 84.53 84.20 84.30 84.30
3/13/2016 01:00 to 0:10 84.61 83.82 83.25 83.13 83.52 82.85
3/13/2016 00:00 to 23:10 82.34 83.72 84.87 85.50 86.63 87.05
3/12/2016 23:00 to 22:10 87.62 88.51 88.75 88.59 88.93 88.85
3/12/2016 22:00 to 21:10 88.53 86.22 85.31 84.75 84.55 84.16
3/12/2016 21:00 to 20:10 83.50 82.49 81.35 81.50 82.77 82.83
3/12/2016 20:00 to 19:10 83.09 83.23 82.85 83.29 83.19 83.39
3/12/2016 19:00 to 18:10 83.11 83.84 84.69 84.36 84.20 84.24
3/12/2016 18:00 to 17:10 84.32 83.68 82.47 81.86 82.75 84.22
3/12/2016 17:00 to 16:10 84.08 82.51 83.05 84.08 85.76 85.88
3/12/2016 16:00 to 15:10 86.39 86.00 84.43 83.13 80.34 77.80
3/12/2016 15:00 to 14:10 75.45 76.06 78.34 78.32 79.09 82.08
3/12/2016 14:00 to 13:10 84.16 86.12 87.07 87.36 87.66 87.32
3/12/2016 13:00 to 12:10 85.80 86.30 88.43 87.98 88.29 88.83
3/12/2016 12:00 to 11:10 89.60 90.83 91.38 91.68 91.52 91.54
3/12/2016 11:00 to 10:10 91.68 91.78 91.94 92.02 91.54 90.95
3/12/2016 10:00 to 9:10 90.87 91.34 91.96 91.90 91.90 91.82
3/12/2016 09:00 to 8:10 91.82 91.76 91.88 92.35 92.85 93.30
3/12/2016 08:00 to 7:10 93.46 93.56 93.46 93.28 92.93 92.47
3/12/2016 07:00 to 6:10 91.62 90.67 90.00 89.01 88.97 87.74
3/12/2016 06:00 to 5:10 88.31 88.14 86.06 86.47 85.94 85.72
3/12/2016 05:00 to 4:10 85.31 86.28 86.16 86.26 86.32 86.37
3/12/2016 04:00 to 3:10 86.45 86.08 86.16 85.74 85.82 86.47
3/12/2016 03:00 to 2:10 86.47 86.91 86.57 86.91 87.19 87.01
3/12/2016 02:00 to 1:10 87.38 87.58 87.07 86.55 86.47 86.26
3/12/2016 01:00 to 0:10 86.24 86.49 86.75 86.69 86.71 85.84
3/12/2016 00:00 to 23:10 84.53 83.90 84.81 85.05 85.98 85.46
3/11/2016 23:00 to 22:10 85.05 85.70 85.96 86.00 85.98 86.39
3/11/2016 22:00 to 21:10 85.90 86.06 84.97 84.85 85.35 85.68
3/11/2016 21:00 to 20:10 85.19 83.64 84.65 85.27 84.02 81.84
3/11/2016 20:00 to 19:10 82.38 82.65 82.04 80.02 79.35 79.41
3/11/2016 19:00 to 18:10 78.99 79.33 79.66 79.09 79.29 80.53
3/11/2016 18:00 to 17:10 81.45 81.64 82.28 82.28 82.51 82.79
3/11/2016 17:00 to 16:10 83.05 83.96 84.06 83.74 76.30 72.87
3/11/2016 16:00 to 15:10 73.57 73.27 75.43 76.99 77.98 80.26
3/11/2016 15:00 to 14:10 80.48 79.96 79.86 79.05 78.48 77.96
3/11/2016 14:00 to 13:10 78.16 77.68 77.90 82.24 82.55 82.53
3/11/2016 13:00 to 12:10 82.93 85.54 87.09 87.84 87.15 86.45
3/11/2016 12:00 to 11:10 83.68 81.15 81.17 81.07 80.99 81.01
3/11/2016 11:00 to 10:10 81.31 81.56 81.70 80.99 80.59 80.91
3/11/2016 10:00 to 9:10 80.67 80.75 81.21 81.21 81.47 81.09
3/11/2016 09:00 to 8:10 80.59 82.02 81.01 82.18 82.63 83.15
3/11/2016 08:00 to 7:10 83.50 83.27 83.25 82.95 83.54 83.76
3/11/2016 07:00 to 6:10 84.06 83.78 83.78 84.10 84.28 84.22
3/11/2016 06:00 to 5:10 84.38 84.79 84.85 84.81 83.33 83.15
3/11/2016 05:00 to 4:10 82.38 80.85 79.80 78.06 77.47 77.43
3/11/2016 04:00 to 3:10 77.37 78.20 79.58 79.80 79.74 81.29
3/11/2016 03:00 to 2:10 82.73 83.17 83.19 84.43 86.04 85.33
3/11/2016 02:00 to 1:10 -- -- -- -- -- --
3/11/2016 01:00 to 0:10 81.96 80.87 81.11 82.00 81.15 80.16